Tracking 28790 objects as of 19-Apr-2024
HD Live streaming from Space Station
objects crossing your sky now

OPS 7034 (TRANSIT 18)

Track OPS 7034 (TRANSIT 18) now!
10-day predictions
OPS 7034 (TRANSIT 18) is classified as:


NORAD ID: 3133
Int'l Code: 1968-012A
Perigee: 1,017.7 km
Apogee: 1,131.2 km
Inclination: 90.0 °
Period: 106.6 minutes
Semi major axis: 7445 km
RCS: 1.3738 m2 (large)
Launch date: March 2, 1968
Source: United States (US)
Launch site: AIR FORCE WESTERN TEST RANGE (AFWTR)
Your satellite tracking list
Your tracking list is empty




NASA's NSSDC Master Catalog

Two Line Element Set (TLE):
1  3133U 68012A   24109.90154509  .00000301  00000-0  44052-3 0  9998
2  3133  90.0150 272.3245 0076226 116.2920 359.4655 13.51337582764277
Source of the keplerian elements: AFSPC